Weather History for KOKB - September, 2013

Change the Weather History Date:

Thursday, September 12, 2013

  Actual Average Record
Temperature  
Mean Temperature 65 °F 68 °F  
Max Temperature 76 °F 77 °F 87 °F (2000)
Min Temperature 53 °F 60 °F 50 °F (2011)
Degree Days  
Heating Degree Days 0 0  
Month to date heating degree days 0 0  
Since 1 July heating degree days 0 5  
Cooling Degree Days 0 4  
Month to date cooling degree days 85 48  
Year to date cooling degree days 486 348  
Growing Degree Days 15 (Base 50)    
Moisture  
Dew Point 59 °F    
Average Humidity 79    
Maximum Humidity 93    
Minimum Humidity 64    
Precipitation  
Precipitation 0.00 in 0.00 in 0.00 in (2015)
Month to date precipitation 0.00 0.15  
Year to date precipitation 2.33 9.69  
Since 1 July precipitation 0.01 0.42  
Snow  
Snow 0.00 in - - ()
Month to date snowfall 0.0  
Year to date snowfall 0.0  
Since 1 July snowfall 0.0  
Snow Depth 0.00 in    
Sea Level Pressure  
Sea Level Pressure 29.87 in    
Wind  
Wind Speed 4 mph (West)    
Max Wind Speed 13 mph    
Max Gust Speed 20 mph    
Visibility 7 miles    
Events      
T = Trace of Precipitation, MM = Missing Value Source: NWS Daily Summary

Daily Weather History Graph

Daily Weather History Graph

Search for Another Location

Airport or City:

Trip Planner

Search our weather history database for the weather conditions in past years. The results will help you decide how hot, cold, wet, or windy it might be!

Date:

Astronomy

Sep. 12, 2013 Rise Set
Actual Time 6:31 AM PDT 6:59 PM PDT
Civil Twilight 6:06 AM PDT 7:24 PM PDT
Nautical Twilight 5:37 AM PDT 7:53 PM PDT
Astronomical Twilight 5:07 AM PDT 8:23 PM PDT
Moon 1:43 PM PDT (9/12) No Moon Set
Length of Visible Light 13h 17m
Length of Day
12h 28m
Waxing Crescent, 51% of the Moon is Illuminated
Sep 12
Waxing Crescent
Sep 19
Full
Sep 26
Last Quarter
Oct 4
New
Oct 11
First Quarter

Hourly Weather History & Observations

Time (PDT) Temp. Dew Point Humidity Pressure Visibility Wind Dir Wind Speed Gust Speed Precip Events Conditions
12:52 AM 59.0 °F 55.0 °F 87% 29.92 in 7.0 mi Calm Calm - N/A   Clear
1:52 AM 57.9 °F 54.0 °F 87% 29.92 in 7.0 mi Calm Calm - N/A   Clear
2:52 AM 57.0 °F 54.0 °F 89% 29.90 in 6.0 mi Calm Calm - N/A   Clear
3:52 AM 57.0 °F 54.0 °F 89% 29.89 in 7.0 mi Calm Calm - N/A   Clear
4:52 AM 55.0 °F 53.1 °F 93% 29.89 in 6.0 mi Calm Calm - N/A   Clear
5:52 AM 55.0 °F 52.0 °F 89% 29.90 in 7.0 mi Calm Calm - N/A   Clear
6:52 AM 55.0 °F 53.1 °F 93% 29.92 in 4.0 mi Calm Calm - N/A   Clear
7:52 AM 61.0 °F 55.0 °F 81% 29.93 in 7.0 mi Calm Calm - N/A   Clear
8:52 AM 66.9 °F 57.0 °F 70% 29.93 in 7.0 mi Calm Calm - N/A   Clear
9:52 AM 71.1 °F 59.0 °F 66% 29.92 in 7.0 mi Calm Calm - N/A   Clear
10:52 AM 73.9 °F 60.1 °F 62% 29.91 in 6.0 mi WSW 10.4 mph - N/A   Haze
11:52 AM 73.0 °F 61.0 °F 66% 29.90 in 7.0 mi West 9.2 mph - N/A   Clear
12:52 PM 73.9 °F 62.1 °F 66% 29.88 in 7.0 mi West 8.1 mph 19.6 mph N/A   Clear
1:52 PM 73.9 °F 62.1 °F 66% 29.86 in 7.0 mi West 8.1 mph 16.1 mph N/A   Clear
2:52 PM 75.0 °F 62.1 °F 64% 29.84 in 7.0 mi WSW 10.4 mph - N/A   Clear
3:52 PM 73.0 °F 63.0 °F 71% 29.83 in 7.0 mi West 6.9 mph - N/A   Clear
4:52 PM 73.0 °F 62.1 °F 68% 29.82 in 8.0 mi West 6.9 mph - N/A   Clear
5:52 PM 70.0 °F 63.0 °F 78% 29.82 in 7.0 mi West 8.1 mph - N/A   Clear
6:17 PM 69.8 °F 62.6 °F 78% 29.82 in 7.0 mi WSW 6.9 mph - N/A   Scattered Clouds
6:34 PM 69.8 °F 62.6 °F 78% 29.82 in 7.0 mi West 5.8 mph - N/A   Mostly Cloudy
6:47 PM 68.0 °F 62.6 °F 83% 29.82 in 7.0 mi West 5.8 mph - N/A   Scattered Clouds
6:52 PM 68.0 °F 63.0 °F 84% 29.82 in 7.0 mi WSW 4.6 mph - N/A   Partly Cloudy
7:52 PM 66.9 °F 63.0 °F 87% 29.83 in 7.0 mi WSW 4.6 mph - N/A   Clear
8:52 PM 66.0 °F 62.1 °F 87% 29.84 in 6.0 mi Calm Calm - N/A   Clear
9:52 PM 62.1 °F 59.0 °F 90% 29.83 in 6.0 mi Calm Calm - N/A   Clear
10:52 PM 60.1 °F 57.0 °F 90% 29.84 in 5.0 mi Calm Calm - N/A   Clear
11:52 PM 59.0 °F 57.0 °F 93% 29.84 in 5.0 mi Calm Calm - N/A   Clear